CW7769 Weather Reports


time (UTC)temp
C
wind
direction
speed
KPH
gust
KPH
rain 1hr
cm
rain 24hr
cm
rain mn
cm
humidity
%
barometer
mb
20260902023451 12 299 0.0 0.0 0.00 0.00 0.00 68 1021.0
20260902022428 13 299 0.0 0.0 0.00 0.00 0.00 68 1021.1
20260902021421 13 299 0.0 0.0 0.00 0.00 0.00 68 1021.0
20260902020405 13 299 0.0 0.0 0.00 0.00 0.00 68 1020.9
20260902015336 13 299 0.0 0.0 0.00 0.00 0.00 68 1020.9
20260902014310 13 299 0.0 0.0 0.00 0.00 0.00 68 1020.9
20260902013329 13 299 0.0 0.0 0.00 0.00 0.00 68 1020.9
20260902012255 13 299 0.0 0.0 0.00 0.00 0.00 67 1020.9
20260902011221 13 299 0.0 0.0 0.00 0.00 0.00 67 1020.9
20260902010157 13 299 0.0 0.0 0.00 0.00 0.00 67 1020.9
20260902004052 13 299 0.0 0.0 0.00 0.00 0.00 67 1021.2
20260902003113 13 299 0.0 0.0 0.00 0.00 0.00 67 1021.2
20260902002100 14 299 0.0 0.0 0.00 0.00 0.00 66 1021.2
20260902001124 14 299 0.0 0.0 0.00 0.00 0.00 66 1021.3
20260902000104 14 299 0.0 0.0 0.00 0.00 0.00 65 1021.3
20260901235044 14 299 0.0 0.0 0.00 0.00 0.00 65 1021.3
20260901233058 15 299 0.0 0.0 0.00 0.00 0.00 64 1021.5
20260901230913 15 299 0.0 0.0 0.00 0.00 0.00 64 1021.6
20260901225915 15 299 0.0 0.0 0.00 0.00 0.00 64 1021.6
20260901224922 15 299 0.0 0.0 0.00 0.00 0.00 64 1021.5
20260901223914 15 299 0.0 0.0 0.00 0.00 0.00 64 1021.6
20260901222841 16 299 0.0 0.0 0.00 0.00 0.00 63 1021.5
20260901221843 16 299 0.0 0.0 0.00 0.00 0.00 63 1021.5
20260901220814 16 299 0.0 0.0 0.00 0.00 0.00 63 1021.5
20260901215755 16 299 0.0 0.0 0.00 0.00 0.00 63 1021.4
20260901213612 16 299 0.0 0.0 0.00 0.00 0.00 62 1021.3
20260901212552 16 299 0.0 0.0 0.00 0.00 0.00 60 1021.2
20260901210346 17 299 0.0 0.0 0.00 0.00 0.00 59 1021.1
20260901205354 17 299 0.0 0.0 0.00 0.00 0.00 59 1021.1
20260901204345 17 299 0.0 0.0 0.00 0.00 0.00 58 1021.2
20260901203322 17 299 0.0 0.0 0.00 0.00 0.00 58 1021.2
20260901202342 18 299 0.0 0.0 0.00 0.00 0.00 57 1021.1
20260901201337 18 299 0.0 0.0 0.00 0.00 0.00 57 1021.2
20260901200337 18 299 0.0 0.0 0.00 0.00 0.00 55 1021.1
20260901194236 19 299 0.0 0.0 0.00 0.03 0.00 53 1021.1
20260901193217 20 299 0.0 0.0 0.00 0.08 0.00 52 1021.0
20260901191055 20 299 0.0 0.0 0.00 0.08 0.00 51 1020.9
20260901190048 20 299 0.0 0.0 0.00 0.08 0.00 50 1020.9
20260901185023 21 299 0.0 0.0 0.00 0.08 0.00 49 1020.8
20260901184038 21 299 0.0 0.0 0.00 0.08 0.00 47 1020.7
20260901183035 22 299 0.0 0.0 0.00 0.08 0.00 47 1020.6
20260901182027 22 299 0.0 0.0 0.00 0.08 0.00 45 1020.6
20260901181019 23 299 0.0 0.0 0.00 0.08 0.00 43 1020.4
20260901180002 23 299 0.0 0.0 0.00 0.08 0.00 41 1020.4
20260901174945 23 299 0.0 0.0 0.00 0.08 0.00 40 1020.4
20260901174009 23 299 0.0 0.0 0.00 0.08 0.00 39 1020.3
20260901173006 23 288 0.0 0.0 0.00 0.08 0.00 39 1020.4
20260901172006 23 284 0.0 1.6 0.00 0.08 0.00 38 1020.3
20260901165853 24 278 1.6 19.3 0.00 0.08 0.00 37 1020.4
20260901164917 24 272 4.8 19.3 0.00 0.08 0.00 36 1020.5
20260901163906 24 221 1.6 12.9 0.00 0.08 0.00 37 1020.4
20260901162840 24 263 1.6 12.9 0.00 0.08 0.00 37 1020.5
20260901160648 25 237 3.2 19.3 0.00 0.08 0.00 36 1020.5
20260901155702 25 277 4.8 24.1 0.00 0.08 0.00 35 1020.5
20260901154718 25 251 4.8 24.1 0.00 0.08 0.00 36 1020.5
20260901153710 25 286 4.8 17.7 0.00 0.08 0.00 35 1020.6
20260901152653 25 277 1.6 12.9 0.00 0.08 0.00 36 1020.5
20260901151717 25 263 1.6 12.9 0.00 0.08 0.00 37 1020.4
20260901150646 25 269 3.2 14.5 0.00 0.08 0.00 36 1020.6
20260901144539 24 298 3.2 14.5 0.00 0.13 0.00 37 1020.5
20260901140158 25 261 3.2 19.3 0.00 0.43 0.00 36 1020.7
20260901135158 25 270 3.2 19.3 0.00 0.43 0.00 35 1020.8
20260901130756 26 286 4.8 20.9 0.00 0.43 0.00 32 1020.9
20260901125743 26 280 4.8 16.1 0.00 0.43 0.00 33 1021.1
20260901124716 26 194 4.8 17.7 0.00 0.43 0.00 35 1021.1
20260901123724 25 237 6.4 19.3 0.00 0.43 0.00 34 1021.3
20260901121545 26 275 3.2 20.9 0.00 0.43 0.00 35 1021.2
20260901120609 25 266 4.8 20.9 0.00 0.43 0.00 37 1021.3
20260901115557 26 286 4.8 14.5 0.00 0.43 0.00 36 1021.4
20260901114549 26 240 1.6 12.9 0.00 0.43 0.00 38 1021.5
20260901113517 25 292 3.2 14.5 0.00 0.43 0.00 39 1021.6
20260901112509 25 296 3.2 14.5 0.00 0.43 0.00 40 1021.6
20260901111453 25 263 4.8 16.1 0.00 0.43 0.00 41 1021.7
20260901110447 24 278 6.4 16.1 0.00 0.43 0.00 41 1021.8
20260901105441 24 281 6.4 19.3 0.00 0.43 0.00 42 1021.8
20260901103326 23 286 4.8 24.1 0.00 0.43 0.00 43 1021.8
20260901102331 22 277 6.4 24.1 0.00 0.43 0.00 45 1021.9
20260901101311 22 226 6.4 20.9 0.00 0.43 0.00 47 1022.1
20260901100303 22 290 4.8 17.7 0.00 0.43 0.00 47 1021.9
20260901095229 22 161 1.6 16.1 0.00 0.46 0.00 49 1022.1
20260901094202 21 239 6.4 16.1 0.00 0.46 0.00 49 1022.2
20260901093128 21 275 4.8 14.5 0.00 0.46 0.00 50 1022.3
20260901092140 21 208 4.8 14.5 0.00 0.46 0.00 50 1022.3
20260901091202 21 248 3.2 12.9 0.00 0.46 0.00 51 1022.3
20260901090152 21 271 4.8 12.9 0.00 0.46 0.00 53 1022.3
20260901085207 21 232 3.2 11.3 0.00 0.46 0.00 53 1022.4
20260901084138 21 279 1.6 8.0 0.00 0.46 0.00 55 1022.3
20260901083137 20 271 1.6 4.8 0.00 0.46 0.00 56 1022.3
20260901081042 20 227 1.6 8.0 0.00 0.46 0.00 56 1022.2
20260901074845 19 234 1.6 3.2 0.00 0.46 0.00 59 1022.1
20260901073901 18 188 3.2 0.0 0.00 0.46 0.00 61 1022.1
20260901072916 18 193 3.2 8.0 0.00 0.46 0.00 64 1021.9
20260901071848 17 268 3.2 0.0 0.00 0.46 0.00 71 1021.8
20260901070903 16 296 3.2 11.3 0.00 0.46 0.00 72 1021.9
20260901064729 15 251 1.6 6.4 0.00 0.46 0.00 74 1021.8
20260901063734 15 265 0.0 6.4 0.00 0.46 0.00 74 1021.8
20260901062703 15 227 0.0 0.0 0.00 0.46 0.00 74 1021.7
20260901061643 14 227 0.0 0.0 0.00 0.46 0.00 74 1021.8
20260901055542 13 227 0.0 0.0 0.00 0.46 0.00 73 1021.6
20260901054537 13 227 0.0 0.0 0.00 0.46 0.00 72 1021.6
20260901053512 13 227 0.0 0.0 0.00 0.46 0.00 72 1021.5
20260901052509 13 227 0.0 0.0 0.00 0.46 0.00 72 1021.5
20260901050312 13 227 0.0 0.0 0.00 0.46 0.00 71 1021.5
20260901045321 13 227 0.0 0.0 0.00 0.46 0.00 71 1021.4
20260901044258 13 227 0.0 0.0 0.00 0.46 0.00 71 1021.4
20260901043320 14 227 0.0 0.0 0.00 0.46 0.00 72 1021.3
20260901042249 14 227 0.0 0.0 0.00 0.46 0.00 72 1021.4
20260901041223 14 227 0.0 0.0 0.00 0.46 0.00 72 1021.3
20260901040235 14 227 1.6 8.0 0.00 0.46 0.00 72 1021.3
20260901035221 14 212 1.6 8.0 0.00 0.46 0.00 72 1021.3
20260901034221 14 221 1.6 8.0 0.00 0.46 0.00 71 1021.3
20260901033150 14 208 3.2 8.0 0.00 0.46 0.00 71 1021.3
20260901032130 14 221 1.6 4.8 0.00 0.46 0.00 71 1021.2
20260901031144 14 235 1.6 4.8 0.00 0.46 0.00 71 1021.1
20260901030120 14 239 0.0 0.0 0.00 0.46 0.00 71 1021.2
20260901025054 14 239 1.6 4.8 0.00 0.46 0.00 71 1021.2